Location: Góry Miechowskie
(50.3599°N, 20.1803°E)
Time: 15:17:39
(UTC+00:00)

A-11 Canister half - Pass Details

Date: 22 September 2024
Orbit: 1515 x 1684 km, 47.2° (Epoch: 07 October)

Event Time Altitude Azimuth Distance (km) Brightness Sun altitude
Rises 15:46:46 0° 231° (SW) 4,775 12.8 7.1°
Reaches altitude 10° 15:49:58 10° 227° (SW) 3,769 12.1 6.6°
Maximum altitude 15:59:05 54° 154° (SSE) 1,821 9.4 5.2°
Drops below altitude 10° 16:07:59 10° 81° (E) 3,685 10.4 3.7°
Sets 16:11:05 0° 77° (ENE) 4,663 10.9 3.3°
